SCP
0 0 0 0 0 0 0 0 0 0 0 -0 -0 0 0 0 0 0 0 0 0 0 -0 -0 -0 0 0 0 0 -0 0 0 0 1 0 0 0 0 0 0 0 0 0 0 0 0 0 0 0 0 0 0 0 0
0 0 0 0 0 0 0 0 0 0 0 0 -0 0 -0 0 0 0 0 0 0 -0 -0 -0 -0 -0 0 -0 -0 -0 0 0 0 0 0 0 0 0 0 0 0 0 0 0 0 0 0 0 0 0 0 0 0 0
0 0 0 0 0 0 0 0 0 0 -0 0 0 0 -0 0 0 0 0 0 0 0 -0 -0 0 -0 0 -0 0 0 0 0 0 0 1 0 0 0 0 0 0 0 0 0 0 0 0 0 0 0 0 0 0 0
0 0 0 0 0 0 0 0 0 0 0 -0 0 0 0 0 0 0 0 0 0 -0 0 0 -0 -0 0 -0 0 0 0 0 0 0 0 1 0 0 0 0 0 0 0 0 0 0 0 0 0 0 0 0 0 0
0 0 0 0 0 0 0 0 0 0 0 0 0 0 0 0 0 -0 0 0 0 -0 0 0 -0 0 0 0 0 0 0 0 0 0 0 0 0 0 0 0 0 0 0 0 0 0 0 0 0 0 0 0 0 0
0 0 0 0 0 0 0 0 0 0 0 0 0 0 0 0 0 0 0 0 0 0 -0 0 -0 0 0 0 -0 -0 0 0 0 0 0 0 0 0 0 0 0 0 0 0 0 0 0 0 0 0 0 0 0 0
0 0 0 0 0 0 0 0 0 0 0 0 0 0 0 0 -0 0 0 -0 -0 -0 0 0 0 -0 -0 0 -0 -0 -0 -0 0 0 0 0 0 0 0 0 0 0 0 0 0 0 0 0 0 0 0 0 0 0
0 0 0 0 0 0 0 0 0 0 0 0 0 0 0 0 -0 -0 0 0 0 0 0 0 0 0 0 0 -0 -0 -0 -0 -0 0 0 0 0 0 0 0 0 0 0 0 0 0 0 0 0 0 0 0 0 0
0 0 0 0 0 0 0 0 0 0 0 0 0 0 0 0 0 0 0 0 0 0 0 0 0 0 0 -0 0 -0 -0 -0 -0 -0 -0 0 0 0 0 0 0 0 0 0 0 0 0 0 0 0 0 0 0 0
0 0 0 0 0 0 0 0 0 0 0 0 0 0 0 0 0 -0 0 0 0 0 0 0 0 0 0 0 -0 -0 0 0 0 0 0 -0 -0 -0 -0 0 0 0 0 0 0 0 0 0 0 0 0 0 0 0
0 0 0 0 0 0 0 0 0 0 0 0 0 0 0 0 0 0 0 0 0 0 0 0 0 0 0 0 0 0 0 -0 0 0 -0 -0 0 -0 0 0 0 0 0 0 0 0 0 0 0 0 0 0 0 0
0 0 0 0 0 0 0 0 0 0 0 0 0 0 0 0 0 0 0 0 0 0 0 0 -0 -0 0 0 0 0 0 -0 0 -0 0 0 -0 0 -0 0 0 0 0 0 0 0 0 0 0 0 0 0 0 0
0 0 0 0 0 0 0 0 0 0 0 0 0 0 0 0 0 0 0 0 0 0 0 0 0 0 0 0 0 0 0 0 -0 0 0 -0 -0 0 0 0 0 0 0 0 0 0 0 0 0 0 0 0 0 0
0 0 0 0 0 0 0 0 0 0 0 0 0 0 0 0 0 0 0 0 0 0 0 0 0 0 0 0 0 0 0 0 0 0 0 0 -0 -0 -0 -0 -0 -0 0 0 0 0 0 0 0 0 0 0 0 0
0 0 0 0 -0 0 0 0 0 0 0 0 0 0 0 0 0 0 0 -0 0 0 0 0 0 0 0 0 0 0 0 0 0 0 0 0 0 -0 -0 0 0 -0 -0 -0 -0 -0 0 0 0 0 1 3 1 1
0 0 0 -0 0 0 -0 0 0 0 0 0 0 0 0 0 0 0 0 0 0 -0 -0 0 0 0 0 0 0 0 0 0 0 0 0 0 0 0 -0 -0 -0 0 0 0 0 0 1 1 1 1 1 1 1 0
0 0 -0 -0 0 -0 0 0 0 0 0 0 0 0 0 0 -0 0 -0 -0 -0 -0 0 0 0 0 0 0 0 0 0 0 0 0 0 0 -0 -0 -0 -0 -0 0 0 0 0 0 0 0 1 0 0 0 0 0
0 0 0 0 0 0 0 0 0 0 0 0 0 0 -0 0 0 0 0 0 -0 -0 -0 -0 -0 0 0 0 0 0 0 0 0 0 -0 -0 -0 -0 -0 -0 0 0 0 0 0 0 0 0 0 0 0 0 0 0
0 0 0 0 0 0 0 0 0 0 0 0 0 0 0 -0 -0 0 0 0 -0 -0 -0 -0 -0 0 0 0 -0 -0 0 0 0 -0 0 -0 0 -0 0 0 -0 -0 -0 0 0 0 0 0 0 0 0 0 0 0
0 0 0 0 0 0 0 0 0 0 0 0 0 0 0 0 -0 -0 0 0 -0 -0 0 0 -0 0 0 0 -0 -0 -0 0 0 0 0 -0 -0 -0 -0 -0 -0 -0 -0 -0 -0 0 0 0 0 0 0 0 0 0
0 0 0 0 0 0 0 0 0 0 0 0 0 0 0 -0 0 -0 -0 -0 -0 -0 0 0 0 0 -0 -0 -0 0 0 0 -0 -0 0 -0 0 -0 0 -0 -0 -0 -0 -0 0 0 0 0 0 0 0 0 0 0
0 0 0 0 0 0 0 0 0 0 0 0 0 0 0 0 0 0 0 0 -0 -0 -0 0 0 0 0 0 -0 -0 -0 0 0 -0 -0 0 -0 -0 -0 0 -0 -0 -0 0 -0 -0 0 0 0 0 0 0 0 0
0 0 0 0 0 0 0 0 0 0 0 0 0 0 0 0 0 0 0 0 0 0 0 0 0 0 0 0 0 -0 0 0 0 0 0 0 0 0 -0 0 -0 -0 -0 -0 -0 0 0 0 0 0 0 0 0 0
0 0 0 0 0 0 0 0 0 0 0 0 0 0 0 0 0 0 0 0 0 0 0 0 0 0 0 0 0 0 0 -0 -0 0 0 -0 -0 0 -0 -0 -0 -0 0 0 0 0 0 0 0 0 0 0 0 0
0 0 0 0 0 0 0 0 0 0 0 0 0 0 0 0 0 0 0 0 0 0 0 0 0 0 0 0 0 0 0 0 0 0 0 0 0 -0 0 -0 0 0 0 0 0 0 0 0 0 0 0 0 0 0
0 0 0 0 0 0 0 0 0 0 0 0 0 0 0 0 0 0 0 0 0 0 0 0 0 0 0 0 0 0 0 0 0 0 0 0 0 0 0 0 0 0 0 0 0 0 0 0 0 0 0 0 0 0
0 0 0 0 0 0 0 0 0 0 0 0 0 0 0 0 0 0 0 0 0 0 0 0 0 0 0 0 0 0 0 0 0 0 0 0 0 0 0 0 0 0 0 0 0 0 0 0 0 0 0 0 0 0
0 0 0 0 0 0 0 0 0 0 0 0 0 0 0 0 0 0 0 0 0 0 0 0 0 0 0 0 0 0 0 0 0 0 0 0 0 0 0 0 0 0 0 0 0 0 0 0 0 0 0 0 0 0
0 0 0 0 0 0 0 0 0 0 0 0 0 0 0 0 0 0 0 0 0 0 0 0 0 0 0 0 0 0 0 0 0 0 0 0 0 0 0 0 0 0 0 0 0 0 0 0 0 0 0 0 0 0
0 0 0 0 0 0 0 0 0 0 0 0 0 0 0 0 0 0 0 0 0 0 0 0 0 0 0 0 0 0 0 0 0 0 0 0 0 0 0 0 0 0 0 0 0 0 0 0 0 0 0 0 0 0
0 -0 0 0 0 0 0 0 0 0 0 0 0 0 0 0 0 0 0 0 0 0 0 0 0 0 0 0 0 0 0 0 0 0 0 0 0 0 0 0 0 0 0 0 0 0 0 0 0 0 0 0 0 0
0 0 0 0 0 0 0 0 0 0 0 0 0 0 0 0 0 0 0 0 0 0 0 0 0 0 0 0 0 0 0 0 0 0 0 0 0 0 0 0 0 0 0 0 0 0 0 0 0 0 0 0 0 0
0 0 0 0 0 0 0 0 0 0 0 0 0 0 0 0 0 0 0 0 0 0 0 0 0 0 0 0 0 0 0 0 0 0 0 0 0 0 0 0 0 0 0 0 0 0 0 0 0 0 0 0 0 0
Wind_Speed_500mb
60 62 59 55 51 48 41 47 50 56 58 52 44 37 33 13 4 10 17 15 14 15 43 32 19 15 17 16 8 19 14 24 18 35 23 11 10 21 34 41 54 40 37 31 34 31 34 41 28 47 16 4 39 39
63 60 58 56 52 44 42 48 52 57 53 53 44 35 24 12 7 11 21 18 20 24 39 46 46 37 40 32 21 21 13 12 8 14 24 23 14 13 14 30 33 41 37 30 33 28 11 28 35 29 26 21 17 20
58 57 56 53 49 44 49 52 54 53 55 49 35 25 20 15 13 17 26 24 22 19 38 23 17 7 11 19 16 9 13 17 17 20 17 11 28 23 17 18 28 35 23 33 27 34 24 16 30 23 32 27 28 24
53 53 52 50 49 51 55 58 59 58 55 48 30 21 17 21 21 24 23 19 18 19 10 15 15 9 11 13 13 14 17 20 23 28 19 15 10 22 24 28 14 22 35 30 36 27 37 33 24 27 26 27 8 10
50 50 50 52 56 60 62 64 65 64 57 46 32 22 21 22 22 30 26 16 11 15 12 32 36 27 17 20 20 20 19 22 29 14 10 16 21 26 18 27 26 31 26 23 21 27 15 13 35 27 24 22 31 26
51 51 53 56 60 63 65 67 68 66 58 46 37 27 21 18 19 29 9 8 12 22 13 9 25 20 14 17 23 28 24 26 30 32 13 14 33 15 11 25 43 53 51 48 36 25 27 27 26 15 20 32 32 29
53 56 57 58 62 65 65 71 73 69 57 46 40 34 26 23 20 18 12 14 23 25 8 9 12 14 15 17 23 25 25 29 33 32 26 23 27 15 11 22 36 61 69 63 49 41 26 23 30 31 29 33 34 27
58 60 60 59 62 64 67 75 78 68 55 47 36 26 20 18 15 15 15 20 28 14 9 5 10 10 10 8 9 13 19 26 28 32 32 22 30 19 13 33 56 60 52 81 67 46 33 30 38 30 25 25 27 30
61 63 61 59 60 61 71 77 75 67 60 33 23 16 11 1 7 2 27 36 12 13 9 7 5 7 18 20 11 8 12 7 19 15 24 27 20 19 22 29 39 51 52 52 69 47 51 50 54 40 36 37 34 37
62 64 61 58 58 63 72 77 68 66 44 26 17 7 4 8 29 16 7 6 6 9 12 8 4 5 7 10 6 6 11 7 7 14 32 23 31 58 61 49 42 46 38 57 56 50 48 43 54 65 54 41 38 37
61 62 60 55 54 66 69 73 62 59 36 21 16 8 19 17 5 7 8 7 9 6 7 13 13 11 12 8 5 8 4 6 7 10 15 11 23 36 65 66 58 51 53 48 47 54 52 54 63 57 66 60 53 44
60 61 60 51 50 63 68 64 56 38 25 18 16 12 15 9 6 8 9 10 4 8 18 15 40 22 7 11 5 7 5 6 10 14 6 10 14 21 27 54 66 62 55 54 49 48 53 58 61 61 60 60 61 53
61 57 54 42 53 57 63 53 46 41 24 16 9 8 12 7 11 12 15 10 14 20 30 50 25 19 7 14 6 5 7 6 7 5 6 8 29 31 21 20 21 35 44 51 57 56 57 58 64 65 53 48 48 48
60 53 41 45 52 58 53 41 37 29 14 10 12 7 9 8 8 7 20 19 31 33 48 44 29 5 10 4 4 6 5 6 5 7 7 10 23 36 29 22 23 32 41 40 41 46 56 58 60 59 58 55 55 52
63 48 33 53 54 53 43 34 25 16 13 10 9 8 8 16 23 26 30 31 38 43 47 28 19 3 5 7 8 7 12 8 7 7 7 25 43 37 11 26 18 39 53 54 55 58 57 61 58 50 29 26 36 36
65 33 31 52 51 44 32 26 15 10 9 9 8 15 28 27 29 36 34 40 39 46 39 16 8 9 6 11 8 10 18 11 10 10 29 19 42 53 64 53 61 62 40 23 29 50 46 45 43 44 41 43 44 42
57 26 52 50 51 35 17 15 8 7 7 9 8 23 27 28 28 35 39 42 43 27 15 9 13 12 12 11 12 10 11 13 38 42 38 40 44 48 53 66 73 77 60 44 67 56 53 54 59 57 61 53 55 47
50 52 49 47 46 32 11 9 6 6 5 8 10 21 22 28 29 32 34 38 33 34 21 8 9 12 11 13 12 13 24 47 53 51 46 42 43 50 56 59 49 63 56 71 64 55 53 52 58 51 56 55 60 55
53 49 38 39 34 19 8 5 4 7 7 15 15 20 18 20 23 27 32 32 27 25 25 10 9 9 7 5 25 43 39 31 43 52 39 49 55 49 48 50 57 54 53 58 60 52 55 56 50 43 39 35 41 31
40 33 29 27 18 6 8 5 5 7 7 12 20 17 19 14 21 22 25 28 25 26 15 7 4 9 19 19 17 34 37 39 42 45 51 53 52 46 50 48 47 44 51 55 51 48 46 55 54 46 40 33 27 20
30 21 31 15 8 7 8 8 7 5 13 12 19 19 18 19 13 16 16 16 20 7 8 17 20 22 21 21 16 22 29 36 38 41 40 43 41 44 50 43 44 46 45 48 47 48 51 52 42 34 33 32 26 27
20 37 19 11 7 6 9 9 9 14 9 17 17 17 14 13 12 12 12 6 4 11 17 22 26 23 20 21 21 24 26 26 30 33 36 40 43 42 42 45 45 43 44 44 45 45 45 42 42 40 36 32 28 27
29 17 9 9 8 7 9 6 8 4 7 8 15 11 8 6 12 17 3 5 5 13 20 21 25 22 19 15 16 16 23 23 25 27 31 33 34 37 36 42 46 42 41 43 36 35 36 35 38 38 37 36 32 29
25 8 8 8 13 7 6 8 8 7 8 6 5 9 10 9 16 11 3 6 1 7 16 22 23 20 15 14 15 18 21 19 18 24 26 26 25 28 32 34 31 38 38 30 26 26 26 26 25 28 29 30 31 32
9 11 10 11 11 9 8 6 7 6 8 5 9 10 6 5 7 7 6 3 6 10 15 21 22 22 20 16 16 23 22 21 20 17 21 23 22 20 22 27 31 31 33 34 40 29 24 21 21 21 20 22 23 23
11 12 15 14 9 10 11 6 10 10 8 5 7 10 5 6 8 8 6 2 7 14 15 17 21 23 22 20 19 18 20 20 19 9 13 15 14 17 19 20 22 27 29 25 26 27 27 27 24 23 23 24 23 19
11 15 20 19 15 13 9 11 11 7 7 8 8 5 6 7 9 2 2 3 5 16 18 16 15 19 21 21 20 20 15 13 9 5 6 9 12 14 14 14 14 15 20 22 21 20 23 21 23 23 22 23 24 24
24 16 27 31 24 24 12 10 9 8 11 13 7 9 7 10 9 2 7 9 19 24 25 24 21 19 19 18 17 17 14 14 16 9 7 1 8 11 12 11 12 16 15 18 18 13 15 18 18 20 20 20 19 19
17 18 28 24 26 15 18 14 13 19 17 19 14 14 21 21 19 20 25 28 28 28 30 30 26 20 21 14 9 8 11 11 15 16 16 11 11 10 10 10 13 15 15 15 22 15 10 12 13 15 14 15 17 19
19 30 22 24 17 15 21 26 21 19 21 22 24 25 28 30 30 28 28 29 31 32 34 34 33 26 21 21 11 19 9 10 9 9 9 5 7 7 8 10 10 9 10 10 9 11 5 8 2 4 3 2 3 4
15 29 34 26 25 27 31 24 22 23 23 24 28 32 35 37 32 30 30 25 20 28 31 30 28 20 11 8 14 13 8 6 8 14 5 7 7 9 11 11 10 9 8 8 8 9 6 4 4 3 3 4 3 5
20 23 29 19 21 26 25 22 23 29 35 39 42 40 37 37 33 36 12 11 13 18 18 18 19 4 7 13 9 12 9 5 8 10 14 11 5 8 11 10 10 8 8 9 11 10 7 6 8 8 8 8 9 10
23 23 20 20 11 11 20 23 21 30 32 29 37 42 41 37 36 3 3 10 5 1 3 4 4 11 10 5 6 8 7 5 9 10 11 11 10 6 7 6 7 8 10 12 13 14 16 16 16 16 14 14 13 13
Wind_Direction_500mb
359 357 359 357 355 356 357 2 2 359 1 355 353 348 348 342 308 299 306 297 260 282 290 281 274 239 289 293 315 333 234 186 229 223 179 190 269 253 256 217 186 199 199 206 210 201 220 197 202 181 194 169 179 194
2 0 360 0 1 3 3 359 357 355 356 356 1 1 2 352 326 300 313 330 309 273 272 284 279 275 261 280 278 315 306 308 292 251 210 194 220 278 291 247 219 206 208 204 213 207 207 198 192 170 185 192 190 181
360 2 2 4 8 6 357 353 352 351 350 350 351 5 2 347 332 316 317 316 318 295 304 245 278 295 257 245 258 290 322 343 312 311 310 277 194 208 256 245 271 247 257 215 207 207 147 165 185 169 209 227 209 195
356 360 359 359 359 356 353 352 350 348 346 346 340 328 328 338 328 315 306 310 322 299 280 326 291 287 288 263 261 273 294 295 299 310 285 280 269 196 216 253 278 239 243 262 213 220 197 180 172 196 201 212 222 210
350 352 352 350 349 348 348 347 347 346 345 342 336 319 310 293 312 322 298 277 297 327 307 302 292 277 279 257 260 268 275 270 264 250 272 270 276 282 247 235 233 241 240 255 224 194 229 185 201 222 242 227 232 240
347 345 344 345 344 343 344 344 343 342 339 333 325 309 305 302 307 326 300 245 330 331 307 308 324 286 266 266 270 264 256 246 251 266 245 252 281 315 274 248 243 238 244 249 269 231 208 236 252 253 242 249 233 216
345 342 341 341 341 341 341 341 341 340 334 328 319 306 292 285 287 280 290 293 307 322 270 290 321 320 303 282 275 266 252 251 248 255 253 252 232 245 252 260 257 238 236 240 244 250 235 230 250 249 248 247 246 234
345 342 341 340 340 340 341 341 341 343 336 328 319 312 294 286 295 287 272 269 315 281 271 291 281 303 300 268 266 236 256 258 252 250 249 232 254 165 240 243 251 262 266 232 236 234 239 236 234 242 261 265 271 245
345 343 342 342 342 342 342 342 343 345 342 341 343 10 41 350 256 276 291 295 263 260 283 217 271 311 319 297 265 245 224 244 250 254 248 246 231 234 233 241 248 246 234 256 228 218 215 217 244 241 238 246 251 252
345 343 340 341 343 342 342 343 346 348 349 0 24 313 319 344 298 316 294 218 217 225 236 263 192 254 296 314 288 270 212 231 251 245 235 240 244 238 237 245 240 235 240 234 241 228 216 226 237 238 232 237 246 247
344 341 338 337 342 343 342 344 347 350 358 6 0 331 310 332 317 257 268 243 205 254 263 291 305 289 245 241 265 260 289 276 254 258 196 233 237 231 233 236 237 228 225 232 235 233 233 232 231 234 237 234 236 234
345 341 336 334 342 342 343 345 346 357 336 337 336 334 342 324 324 318 332 323 324 295 322 320 329 332 236 222 240 247 244 230 255 347 260 248 320 314 222 219 221 228 228 234 225 221 229 233 234 235 239 235 237 234
345 342 337 338 344 345 345 345 348 353 11 9 343 326 348 330 4 357 351 335 320 314 323 327 318 314 212 221 225 257 250 241 339 239 243 315 339 343 340 310 268 224 230 232 231 231 235 230 228 229 233 234 238 234
344 344 337 343 349 345 343 344 349 11 11 358 335 11 2 338 348 312 303 289 294 285 286 298 307 268 285 235 263 267 303 311 285 308 341 314 314 307 296 287 270 252 238 234 243 230 232 224 221 220 228 228 224 231
342 343 336 348 343 343 344 346 350 15 347 352 351 339 356 315 327 330 340 351 354 348 336 319 326 322 336 329 358 312 327 340 347 311 286 318 341 8 6 45 355 237 232 236 230 227 222 213 209 206 176 140 187 185
341 350 331 337 342 344 342 349 3 352 348 332 13 342 355 358 358 3 4 2 1 347 352 355 344 354 333 340 339 12 333 346 311 298 287 10 44 44 45 43 26 58 86 122 184 179 151 140 130 117 107 103 101 102
341 325 331 338 342 345 350 7 348 329 330 337 345 327 13 355 355 1 0 2 355 2 7 9 22 346 322 342 5 360 330 304 301 331 25 73 59 55 58 52 41 50 42 64 85 97 105 114 123 117 104 100 101 102
328 325 331 333 340 350 327 356 328 297 291 320 344 338 347 344 0 356 5 3 355 360 12 50 28 0 349 357 339 337 339 344 353 2 33 50 70 69 63 58 59 51 39 60 71 78 86 85 85 88 97 97 96 95
325 323 323 332 338 339 319 320 356 298 287 312 335 334 338 337 355 357 3 6 0 3 32 35 39 356 348 309 331 339 359 12 5 5 26 44 49 57 68 73 69 65 63 56 56 61 71 77 78 79 83 94 99 92
321 318 325 324 328 304 285 279 300 272 278 306 294 323 315 320 329 350 4 15 5 31 28 42 24 310 336 348 358 347 3 18 22 18 19 25 36 41 51 54 56 64 74 70 67 64 69 72 71 80 83 80 97 106
331 295 323 334 279 262 269 294 279 267 296 282 301 309 315 318 317 330 355 24 42 359 339 3 360 5 349 6 22 346 7 15 22 28 24 22 27 42 34 43 50 55 61 67 68 66 67 73 78 81 82 83 83 83
305 309 311 282 256 252 258 239 272 291 270 276 297 302 290 292 285 313 336 5 45 7 14 1 354 350 0 4 7 3 7 3 16 27 29 33 33 31 38 38 34 46 51 56 58 62 64 66 72 75 79 79 78 80
319 315 280 250 246 239 259 244 257 256 277 304 318 302 281 286 294 336 289 27 28 356 342 5 348 339 345 353 348 15 20 14 4 26 20 34 39 36 35 41 40 39 38 38 49 53 54 54 56 60 62 65 69 71
315 264 249 242 220 239 234 223 236 242 277 279 277 278 292 279 306 280 220 223 298 356 347 350 347 347 345 5 3 1 6 13 25 29 20 31 27 41 45 42 40 36 32 30 38 42 47 51 50 53 52 54 56 57
266 242 224 252 229 214 217 212 217 234 256 262 271 272 272 327 276 283 271 264 19 354 355 343 343 351 346 348 349 0 5 355 6 24 15 14 26 46 43 50 44 41 34 36 33 40 40 40 50 53 52 49 42 49
242 227 199 209 219 208 196 211 204 228 256 269 254 250 313 265 254 245 224 208 11 343 356 350 346 343 342 337 333 342 353 345 344 350 11 21 28 23 23 26 34 32 35 35 35 36 46 49 55 55 53 48 43 43
241 232 215 220 220 203 216 235 263 235 229 238 239 250 255 247 251 291 68 113 304 319 323 320 319 325 321 317 319 317 315 333 8 30 16 33 44 49 46 40 30 24 22 27 37 36 33 44 47 49 51 50 45 39
230 240 214 205 214 213 228 216 218 224 223 228 220 227 219 210 237 206 229 278 305 307 306 301 296 294 304 302 295 306 303 275 269 262 245 357 47 45 41 36 32 47 41 28 46 38 36 39 46 43 43 38 30 28
226 222 214 194 205 193 221 210 228 219 227 226 214 232 260 269 279 294 296 293 293 292 295 298 295 279 282 286 284 311 327 317 298 262 245 227 160 45 27 24 19 20 27 20 18 31 66 70 80 75 58 57 43 31
230 204 205 196 206 216 221 213 236 235 231 237 256 268 270 269 272 282 286 292 298 301 301 294 287 275 266 260 263 294 320 353 3 7 17 31 26 347 3 13 16 17 17 16 22 10 16 43 73 78 31 347 80 33
221 207 212 215 228 239 241 242 228 236 247 257 263 266 263 270 274 270 279 285 281 301 301 292 285 275 248 224 282 281 229 253 11 11 34 33 351 353 359 3 2 3 12 21 28 34 46 9 334 332 341 335 308 279
220 221 217 223 244 253 260 255 244 251 258 259 259 258 264 268 275 277 259 277 298 307 312 296 290 277 284 271 250 272 257 251 240 301 321 312 340 6 8 4 2 17 31 42 42 42 41 49 54 50 42 40 30 18
224 219 215 251 260 270 261 258 262 268 268 272 273 271 272 273 283 198 137 29 38 356 265 260 276 253 255 233 203 206 173 243 276 272 252 237 242 214 120 78 41 57 63 73 71 70 67 69 72 69 64 56 47 39
Wind_Speed_850mb
60 62 59 55 51 48 41 47 50 56 58 52 44 37 33 13 4 10 17 15 14 15 43 32 19 15 17 16 8 19 14 24 18 35 23 11 10 21 34 41 54 40 37 31 34 31 34 41 28 47 16 4 39 39
63 60 58 56 52 44 42 48 52 57 53 53 44 35 24 12 7 11 21 18 20 24 39 46 46 37 40 32 21 21 13 12 8 14 24 23 14 13 14 30 33 41 37 30 33 28 11 28 35 29 26 21 17 20
58 57 56 53 49 44 49 52 54 53 55 49 35 25 20 15 13 17 26 24 22 19 38 23 17 7 11 19 16 9 13 17 17 20 17 11 28 23 17 18 28 35 23 33 27 34 24 16 30 23 32 27 28 24
53 53 52 50 49 51 55 58 59 58 55 48 30 21 17 21 21 24 23 19 18 19 10 15 15 9 11 13 13 14 17 20 23 28 19 15 10 22 24 28 14 22 35 30 36 27 37 33 24 27 26 27 8 10
50 50 50 52 56 60 62 64 65 64 57 46 32 22 21 22 22 30 26 16 11 15 12 32 36 27 17 20 20 20 19 22 29 14 10 16 21 26 18 27 26 31 26 23 21 27 15 13 35 27 24 22 31 26
51 51 53 56 60 63 65 67 68 66 58 46 37 27 21 18 19 29 9 8 12 22 13 9 25 20 14 17 23 28 24 26 30 32 13 14 33 15 11 25 43 53 51 48 36 25 27 27 26 15 20 32 32 29
53 56 57 58 62 65 65 71 73 69 57 46 40 34 26 23 20 18 12 14 23 25 8 9 12 14 15 17 23 25 25 29 33 32 26 23 27 15 11 22 36 61 69 63 49 41 26 23 30 31 29 33 34 27
58 60 60 59 62 64 67 75 78 68 55 47 36 26 20 18 15 15 15 20 28 14 9 5 10 10 10 8 9 13 19 26 28 32 32 22 30 19 13 33 56 60 52 81 67 46 33 30 38 30 25 25 27 30
61 63 61 59 60 61 71 77 75 67 60 33 23 16 11 1 7 2 27 36 12 13 9 7 5 7 18 20 11 8 12 7 19 15 24 27 20 19 22 29 39 51 52 52 69 47 51 50 54 40 36 37 34 37
62 64 61 58 58 63 72 77 68 66 44 26 17 7 4 8 29 16 7 6 6 9 12 8 4 5 7 10 6 6 11 7 7 14 32 23 31 58 61 49 42 46 38 57 56 50 48 43 54 65 54 41 38 37
61 62 60 55 54 66 69 73 62 59 36 21 16 8 19 17 5 7 8 7 9 6 7 13 13 11 12 8 5 8 4 6 7 10 15 11 23 36 65 66 58 51 53 48 47 54 52 54 63 57 66 60 53 44
60 61 60 51 50 63 68 64 56 38 25 18 16 12 15 9 6 8 9 10 4 8 18 15 40 22 7 11 5 7 5 6 10 14 6 10 14 21 27 54 66 62 55 54 49 48 53 58 61 61 60 60 61 53
61 57 54 42 53 57 63 53 46 41 24 16 9 8 12 7 11 12 15 10 14 20 30 50 25 19 7 14 6 5 7 6 7 5 6 8 29 31 21 20 21 35 44 51 57 56 57 58 64 65 53 48 48 48
60 53 41 45 52 58 53 41 37 29 14 10 12 7 9 8 8 7 20 19 31 33 48 44 29 5 10 4 4 6 5 6 5 7 7 10 23 36 29 22 23 32 41 40 41 46 56 58 60 59 58 55 55 52
63 48 33 53 54 53 43 34 25 16 13 10 9 8 8 16 23 26 30 31 38 43 47 28 19 3 5 7 8 7 12 8 7 7 7 25 43 37 11 26 18 39 53 54 55 58 57 61 58 50 29 26 36 36
65 33 31 52 51 44 32 26 15 10 9 9 8 15 28 27 29 36 34 40 39 46 39 16 8 9 6 11 8 10 18 11 10 10 29 19 42 53 64 53 61 62 40 23 29 50 46 45 43 44 41 43 44 42
57 26 52 50 51 35 17 15 8 7 7 9 8 23 27 28 28 35 39 42 43 27 15 9 13 12 12 11 12 10 11 13 38 42 38 40 44 48 53 66 73 77 60 44 67 56 53 54 59 57 61 53 55 47
50 52 49 47 46 32 11 9 6 6 5 8 10 21 22 28 29 32 34 38 33 34 21 8 9 12 11 13 12 13 24 47 53 51 46 42 43 50 56 59 49 63 56 71 64 55 53 52 58 51 56 55 60 55
53 49 38 39 34 19 8 5 4 7 7 15 15 20 18 20 23 27 32 32 27 25 25 10 9 9 7 5 25 43 39 31 43 52 39 49 55 49 48 50 57 54 53 58 60 52 55 56 50 43 39 35 41 31
40 33 29 27 18 6 8 5 5 7 7 12 20 17 19 14 21 22 25 28 25 26 15 7 4 9 19 19 17 34 37 39 42 45 51 53 52 46 50 48 47 44 51 55 51 48 46 55 54 46 40 33 27 20
30 21 31 15 8 7 8 8 7 5 13 12 19 19 18 19 13 16 16 16 20 7 8 17 20 22 21 21 16 22 29 36 38 41 40 43 41 44 50 43 44 46 45 48 47 48 51 52 42 34 33 32 26 27
20 37 19 11 7 6 9 9 9 14 9 17 17 17 14 13 12 12 12 6 4 11 17 22 26 23 20 21 21 24 26 26 30 33 36 40 43 42 42 45 45 43 44 44 45 45 45 42 42 40 36 32 28 27
29 17 9 9 8 7 9 6 8 4 7 8 15 11 8 6 12 17 3 5 5 13 20 21 25 22 19 15 16 16 23 23 25 27 31 33 34 37 36 42 46 42 41 43 36 35 36 35 38 38 37 36 32 29
25 8 8 8 13 7 6 8 8 7 8 6 5 9 10 9 16 11 3 6 1 7 16 22 23 20 15 14 15 18 21 19 18 24 26 26 25 28 32 34 31 38 38 30 26 26 26 26 25 28 29 30 31 32
9 11 10 11 11 9 8 6 7 6 8 5 9 10 6 5 7 7 6 3 6 10 15 21 22 22 20 16 16 23 22 21 20 17 21 23 22 20 22 27 31 31 33 34 40 29 24 21 21 21 20 22 23 23
11 12 15 14 9 10 11 6 10 10 8 5 7 10 5 6 8 8 6 2 7 14 15 17 21 23 22 20 19 18 20 20 19 9 13 15 14 17 19 20 22 27 29 25 26 27 27 27 24 23 23 24 23 19
11 15 20 19 15 13 9 11 11 7 7 8 8 5 6 7 9 2 2 3 5 16 18 16 15 19 21 21 20 20 15 13 9 5 6 9 12 14 14 14 14 15 20 22 21 20 23 21 23 23 22 23 24 24
24 16 27 31 24 24 12 10 9 8 11 13 7 9 7 10 9 2 7 9 19 24 25 24 21 19 19 18 17 17 14 14 16 9 7 1 8 11 12 11 12 16 15 18 18 13 15 18 18 20 20 20 19 19
17 18 28 24 26 15 18 14 13 19 17 19 14 14 21 21 19 20 25 28 28 28 30 30 26 20 21 14 9 8 11 11 15 16 16 11 11 10 10 10 13 15 15 15 22 15 10 12 13 15 14 15 17 19
19 30 22 24 17 15 21 26 21 19 21 22 24 25 28 30 30 28 28 29 31 32 34 34 33 26 21 21 11 19 9 10 9 9 9 5 7 7 8 10 10 9 10 10 9 11 5 8 2 4 3 2 3 4
15 29 34 26 25 27 31 24 22 23 23 24 28 32 35 37 32 30 30 25 20 28 31 30 28 20 11 8 14 13 8 6 8 14 5 7 7 9 11 11 10 9 8 8 8 9 6 4 4 3 3 4 3 5
20 23 29 19 21 26 25 22 23 29 35 39 42 40 37 37 33 36 12 11 13 18 18 18 19 4 7 13 9 12 9 5 8 10 14 11 5 8 11 10 10 8 8 9 11 10 7 6 8 8 8 8 9 10
23 23 20 20 11 11 20 23 21 30 32 29 37 42 41 37 36 3 3 10 5 1 3 4 4 11 10 5 6 8 7 5 9 10 11 11 10 6 7 6 7 8 10 12 13 14 16 16 16 16 14 14 13 13
Wind_Direction_850mb
359 357 359 357 355 356 357 2 2 359 1 355 353 348 348 342 308 299 306 297 260 282 290 281 274 239 289 293 315 333 234 186 229 223 179 190 269 253 256 217 186 199 199 206 210 201 220 197 202 181 194 169 179 194
2 0 360 0 1 3 3 359 357 355 356 356 1 1 2 352 326 300 313 330 309 273 272 284 279 275 261 280 278 315 306 308 292 251 210 194 220 278 291 247 219 206 208 204 213 207 207 198 192 170 185 192 190 181
360 2 2 4 8 6 357 353 352 351 350 350 351 5 2 347 332 316 317 316 318 295 304 245 278 295 257 245 258 290 322 343 312 311 310 277 194 208 256 245 271 247 257 215 207 207 147 165 185 169 209 227 209 195
356 360 359 359 359 356 353 352 350 348 346 346 340 328 328 338 328 315 306 310 322 299 280 326 291 287 288 263 261 273 294 295 299 310 285 280 269 196 216 253 278 239 243 262 213 220 197 180 172 196 201 212 222 210
350 352 352 350 349 348 348 347 347 346 345 342 336 319 310 293 312 322 298 277 297 327 307 302 292 277 279 257 260 268 275 270 264 250 272 270 276 282 247 235 233 241 240 255 224 194 229 185 201 222 242 227 232 240
347 345 344 345 344 343 344 344 343 342 339 333 325 309 305 302 307 326 300 245 330 331 307 308 324 286 266 266 270 264 256 246 251 266 245 252 281 315 274 248 243 238 244 249 269 231 208 236 252 253 242 249 233 216
345 342 341 341 341 341 341 341 341 340 334 328 319 306 292 285 287 280 290 293 307 322 270 290 321 320 303 282 275 266 252 251 248 255 253 252 232 245 252 260 257 238 236 240 244 250 235 230 250 249 248 247 246 234
345 342 341 340 340 340 341 341 341 343 336 328 319 312 294 286 295 287 272 269 315 281 271 291 281 303 300 268 266 236 256 258 252 250 249 232 254 165 240 243 251 262 266 232 236 234 239 236 234 242 261 265 271 245
345 343 342 342 342 342 342 342 343 345 342 341 343 10 41 350 256 276 291 295 263 260 283 217 271 311 319 297 265 245 224 244 250 254 248 246 231 234 233 241 248 246 234 256 228 218 215 217 244 241 238 246 251 252
345 343 340 341 343 342 342 343 346 348 349 0 24 313 319 344 298 316 294 218 217 225 236 263 192 254 296 314 288 270 212 231 251 245 235 240 244 238 237 245 240 235 240 234 241 228 216 226 237 238 232 237 246 247
344 341 338 337 342 343 342 344 347 350 358 6 0 331 310 332 317 257 268 243 205 254 263 291 305 289 245 241 265 260 289 276 254 258 196 233 237 231 233 236 237 228 225 232 235 233 233 232 231 234 237 234 236 234
345 341 336 334 342 342 343 345 346 357 336 337 336 334 342 324 324 318 332 323 324 295 322 320 329 332 236 222 240 247 244 230 255 347 260 248 320 314 222 219 221 228 228 234 225 221 229 233 234 235 239 235 237 234
345 342 337 338 344 345 345 345 348 353 11 9 343 326 348 330 4 357 351 335 320 314 323 327 318 314 212 221 225 257 250 241 339 239 243 315 339 343 340 310 268 224 230 232 231 231 235 230 228 229 233 234 238 234
344 344 337 343 349 345 343 344 349 11 11 358 335 11 2 338 348 312 303 289 294 285 286 298 307 268 285 235 263 267 303 311 285 308 341 314 314 307 296 287 270 252 238 234 243 230 232 224 221 220 228 228 224 231
342 343 336 348 343 343 344 346 350 15 347 352 351 339 356 315 327 330 340 351 354 348 336 319 326 322 336 329 358 312 327 340 347 311 286 318 341 8 6 45 355 237 232 236 230 227 222 213 209 206 176 140 187 185
341 350 331 337 342 344 342 349 3 352 348 332 13 342 355 358 358 3 4 2 1 347 352 355 344 354 333 340 339 12 333 346 311 298 287 10 44 44 45 43 26 58 86 122 184 179 151 140 130 117 107 103 101 102
341 325 331 338 342 345 350 7 348 329 330 337 345 327 13 355 355 1 0 2 355 2 7 9 22 346 322 342 5 360 330 304 301 331 25 73 59 55 58 52 41 50 42 64 85 97 105 114 123 117 104 100 101 102
328 325 331 333 340 350 327 356 328 297 291 320 344 338 347 344 0 356 5 3 355 360 12 50 28 0 349 357 339 337 339 344 353 2 33 50 70 69 63 58 59 51 39 60 71 78 86 85 85 88 97 97 96 95
325 323 323 332 338 339 319 320 356 298 287 312 335 334 338 337 355 357 3 6 0 3 32 35 39 356 348 309 331 339 359 12 5 5 26 44 49 57 68 73 69 65 63 56 56 61 71 77 78 79 83 94 99 92
321 318 325 324 328 304 285 279 300 272 278 306 294 323 315 320 329 350 4 15 5 31 28 42 24 310 336 348 358 347 3 18 22 18 19 25 36 41 51 54 56 64 74 70 67 64 69 72 71 80 83 80 97 106
331 295 323 334 279 262 269 294 279 267 296 282 301 309 315 318 317 330 355 24 42 359 339 3 360 5 349 6 22 346 7 15 22 28 24 22 27 42 34 43 50 55 61 67 68 66 67 73 78 81 82 83 83 83
305 309 311 282 256 252 258 239 272 291 270 276 297 302 290 292 285 313 336 5 45 7 14 1 354 350 0 4 7 3 7 3 16 27 29 33 33 31 38 38 34 46 51 56 58 62 64 66 72 75 79 79 78 80
319 315 280 250 246 239 259 244 257 256 277 304 318 302 281 286 294 336 289 27 28 356 342 5 348 339 345 353 348 15 20 14 4 26 20 34 39 36 35 41 40 39 38 38 49 53 54 54 56 60 62 65 69 71
315 264 249 242 220 239 234 223 236 242 277 279 277 278 292 279 306 280 220 223 298 356 347 350 347 347 345 5 3 1 6 13 25 29 20 31 27 41 45 42 40 36 32 30 38 42 47 51 50 53 52 54 56 57
266 242 224 252 229 214 217 212 217 234 256 262 271 272 272 327 276 283 271 264 19 354 355 343 343 351 346 348 349 0 5 355 6 24 15 14 26 46 43 50 44 41 34 36 33 40 40 40 50 53 52 49 42 49
242 227 199 209 219 208 196 211 204 228 256 269 254 250 313 265 254 245 224 208 11 343 356 350 346 343 342 337 333 342 353 345 344 350 11 21 28 23 23 26 34 32 35 35 35 36 46 49 55 55 53 48 43 43
241 232 215 220 220 203 216 235 263 235 229 238 239 250 255 247 251 291 68 113 304 319 323 320 319 325 321 317 319 317 315 333 8 30 16 33 44 49 46 40 30 24 22 27 37 36 33 44 47 49 51 50 45 39
230 240 214 205 214 213 228 216 218 224 223 228 220 227 219 210 237 206 229 278 305 307 306 301 296 294 304 302 295 306 303 275 269 262 245 357 47 45 41 36 32 47 41 28 46 38 36 39 46 43 43 38 30 28
226 222 214 194 205 193 221 210 228 219 227 226 214 232 260 269 279 294 296 293 293 292 295 298 295 279 282 286 284 311 327 317 298 262 245 227 160 45 27 24 19 20 27 20 18 31 66 70 80 75 58 57 43 31
230 204 205 196 206 216 221 213 236 235 231 237 256 268 270 269 272 282 286 292 298 301 301 294 287 275 266 260 263 294 320 353 3 7 17 31 26 347 3 13 16 17 17 16 22 10 16 43 73 78 31 347 80 33
221 207 212 215 228 239 241 242 228 236 247 257 263 266 263 270 274 270 279 285 281 301 301 292 285 275 248 224 282 281 229 253 11 11 34 33 351 353 359 3 2 3 12 21 28 34 46 9 334 332 341 335 308 279
220 221 217 223 244 253 260 255 244 251 258 259 259 258 264 268 275 277 259 277 298 307 312 296 290 277 284 271 250 272 257 251 240 301 321 312 340 6 8 4 2 17 31 42 42 42 41 49 54 50 42 40 30 18
224 219 215 251 260 270 261 258 262 268 268 272 273 271 272 273 283 198 137 29 38 356 265 260 276 253 255 233 203 206 173 243 276 272 252 237 242 214 120 78 41 57 63 73 71 70 67 69 72 69 64 56 47 39